Location: *
(45.5224°N, 122.7471°W)
Time: 21:19:14
(UTC+00:00)

Meteor 1-12 Rocket - Pass Details

Date: 09 April 2020
Orbit: 854 x 927 km, 81.2° (Epoch: 02 June)

Event Time Altitude Azimuth Distance (km) Brightness Sun altitude
Rises 12:03:45 0° 345° (NNW) 3,569 7.6 -15.8°
Reaches altitude 10° 12:06:17 10° 342° (NNW) 2,614 6.9 -15.4°
Maximum altitude 12:12:06 58° 265° (W) 1,052 4.4 -14.5°
Drops below altitude 10° 12:17:47 10° 188° (S) 2,550 6.4 -13.6°
Sets 12:20:14 0° 184° (S) 3,474 7.1 -13.2°
